Weather History for KDSM - August, 2013

Change the Weather History Date:

Sunday, August 4, 2013

  Actual Average Record
Temperature  
Mean Temperature 71 °F 76 °F  
Max Temperature 83 °F 85 °F 110 °F (1918)
Min Temperature 59 °F 66 °F 47 °F (1894)
Degree Days  
Heating Degree Days 0 0  
Month to date heating degree days 0 0  
Since 1 June heating degree days 19 18  
Since 1 July heating degree days 0 1  
Cooling Degree Days 6 11  
Month to date cooling degree days 37 44  
Year to date cooling degree days 745 690  
Since 1 June cooling degree days 643 614  
Growing Degree Days 20 (Base 50)    
Moisture  
Dew Point 56 °F    
Average Humidity 62    
Maximum Humidity 84    
Minimum Humidity 39    
Precipitation  
Precipitation 0.00 in 0.13 in 2.30 in (1970)
Month to date precipitation T 0.54  
Year to date precipitation 22.56 23.13  
Snow  
Snow 0.00 in 0.00 in - ()
Month to date snowfall 0.0 0.0  
Since 1 June snowfall 0.0 0.0  
Since 1 July snowfall 0.0 0.0  
Snow Depth 0.00 in    
Sea Level Pressure  
Sea Level Pressure 30.12 in    
Wind  
Wind Speed 7 mph (SSE)    
Max Wind Speed 16 mph    
Max Gust Speed 22 mph    
Visibility 10 miles    
Events      
T = Trace of Precipitation, MM = Missing Value Source: NWS Daily Summary

Daily Weather History Graph

Daily Weather History Graph

Search for Another Location

Airport or City:

Trip Planner

Search our weather history database for the weather conditions in past years. The results will help you decide how hot, cold, wet, or windy it might be!

Date:

Astronomy

Aug. 04, 2013 Rise Set
Actual Time 6:12 AM CDT 8:28 PM CDT
Civil Twilight 5:41 AM CDT 8:59 PM CDT
Nautical Twilight 5:03 AM CDT 9:36 PM CDT
Astronomical Twilight 4:21 AM CDT 10:18 PM CDT
Moon 4:13 AM CDT (8/4) 6:51 PM CDT (8/4)
Length of Visible Light 15h 17m
Length of Day
14h 15m
Waning Crescent, 4% of the Moon is Illuminated
Aug 4
Waning Crescent
Aug 6
New
Aug 14
First Quarter
Aug 20
Full
Aug 28
Last Quarter

Hourly Weather History & Observations

Time (CDT) Temp. Heat Index Dew Point Humidity Pressure Visibility Wind Dir Wind Speed Gust Speed Precip Events Conditions
12:54 AM 66.0 °F - 57.0 °F 73% 30.18 in 10.0 mi Calm Calm - N/A   Partly Cloudy
1:54 AM 66.0 °F - 55.9 °F 70% 30.17 in 10.0 mi Calm Calm - N/A   Partly Cloudy
2:54 AM 64.9 °F - 55.9 °F 73% 30.14 in 10.0 mi NE 4.6 mph - N/A   Clear
3:54 AM 64.9 °F - 55.0 °F 70% 30.15 in 10.0 mi Calm Calm - N/A   Clear
4:54 AM 62.1 °F - 55.0 °F 78% 30.17 in 10.0 mi Calm Calm - N/A   Clear
5:54 AM 60.1 °F - 55.0 °F 83% 30.18 in 10.0 mi SSW 3.5 mph - N/A   Partly Cloudy
6:54 AM 61.0 °F - 55.9 °F 83% 30.17 in 10.0 mi Calm Calm - N/A   Partly Cloudy
7:54 AM 66.0 °F - 57.9 °F 75% 30.18 in 10.0 mi Calm Calm - N/A   Partly Cloudy
8:54 AM 70.0 °F - 55.0 °F 59% 30.18 in 10.0 mi ESE 8.1 mph - N/A   Scattered Clouds
9:54 AM 73.0 °F - 57.0 °F 57% 30.18 in 10.0 mi ESE 8.1 mph - N/A   Scattered Clouds
10:54 AM 75.9 °F - 55.9 °F 50% 30.17 in 10.0 mi SE 9.2 mph - N/A   Scattered Clouds
11:54 AM 79.0 °F - 53.1 °F 40% 30.17 in 10.0 mi SSE 11.5 mph - N/A   Scattered Clouds
12:54 PM 80.1 °F 79.9 °F 53.1 °F 39% 30.14 in 10.0 mi South 10.4 mph - N/A   Scattered Clouds
1:54 PM 81.0 °F 80.7 °F 55.0 °F 41% 30.13 in 10.0 mi South 11.5 mph 18.4 mph N/A   Scattered Clouds
2:54 PM 80.1 °F 80.0 °F 54.0 °F 40% 30.12 in 10.0 mi South 9.2 mph - N/A   Scattered Clouds
3:54 PM 81.0 °F 80.8 °F 55.9 °F 42% 30.08 in 10.0 mi South 11.5 mph - N/A   Mostly Cloudy
4:54 PM 82.0 °F 81.6 °F 55.9 °F 41% 30.07 in 10.0 mi SSE 10.4 mph - N/A   Mostly Cloudy
5:54 PM 82.0 °F 81.6 °F 55.9 °F 41% 30.06 in 10.0 mi SSE 9.2 mph - N/A   Partly Cloudy
6:54 PM 80.1 °F 80.2 °F 55.9 °F 43% 30.05 in 10.0 mi SE 10.4 mph - N/A   Partly Cloudy
7:54 PM 78.1 °F - 55.9 °F 46% 30.05 in 10.0 mi SSE 6.9 mph - N/A   Scattered Clouds
8:54 PM 77.0 °F - 57.9 °F 52% 30.05 in 10.0 mi ESE 9.2 mph - N/A   Overcast
9:54 PM 75.9 °F - 57.9 °F 54% 30.05 in 10.0 mi SE 9.2 mph - N/A   Overcast
10:54 PM 73.9 °F - 59.0 °F 59% 30.05 in 10.0 mi SSE 11.5 mph - N/A   Mostly Cloudy
11:54 PM 72.0 °F - 57.9 °F 61% 30.04 in 10.0 mi SSE 9.2 mph - N/A   Mostly Cloudy